Regional Weather Roundup
Issued by NWS

Home | Current Version | Previous Version | Text Only | Print | Product List | Glossary On
Versions: 1 2 3 4 5 6 7 8 9 10 11 12 13 14 15 16 17 18 19 20 21 22 23 24 25 26 27 28 29 30 31 32 33 34 35 36 37 38 39 40 41 42 43 44 45 46 47 48 49 50
000
ASUS43 KDTX 191710
RWRMI
MICHIGAN HOURLY REGIONAL WEATHER ROUNDUP
NATIONAL WEATHER SERVICE DETROIT/PONTIAC MI
1200 PM EST FRI JAN 19 2018

NOTE: "FAIR" INDICATES FEW OR NO CLOUDS BELOW 12,000 FEET WITH NO
SIGNIFICANT WEATHER AND/OR OBSTRUCTION TO VISIBILITY.

MIZ047>049-052>055-059>063-066>070-074>076-081>083-191800-
SOUTHEAST LOWER MICHIGAN

CITY           SKY/WX    TMP DP  RH WIND       PRES   REMARKS
ADRIAN         FAIR      30  19  63 SW12      29.95F WCI  20
ALMA           FAIR      33  25  73 SW13G21   29.83S WCI  23
ANN ARBOR      FAIR      30  19  63 S13       29.91F WCI  20
BAD AXE        FAIR      32  22  66 SW12G20   29.82F WCI  23
CARO           FAIR      33  22  65 SW16G22   29.83F WCI  22
DETROIT CITY   FAIR      32  18  56 SW17      29.92F WCI  21
DETROIT        FAIR      32  19  58 SW16      29.94F WCI  21
FLINT          FAIR      32  20  61 SW10      29.87F WCI  24
GROSSE ILE     FAIR      32  19  58 W16G22    29.94F WCI  21
HILLSDALE      FAIR      32  19  59 SW15      29.91F WCI  22
HOWELL         FAIR      33  21  62 SW12G21   29.87F WCI  24

CITY           SKY/WX    TMP DP  RH WIND       PRES   REMARKS
JACKSON        FAIR      33  20  58 S20       29.89F WCI  21
LAMBERTVILLE   FAIR      31  17  55 SW18      29.97F WCI  20
LANSING        FAIR      32  21  64 SW17      29.87F WCI  21
LAPEER         FAIR      34  21  59 SW9       29.86F WCI  26
MASON          FAIR      34  18  52 SW12G17   29.87F WCI  25
MONROE         FAIR      30  17  57 SW22      29.95F WCI  17
MT. CLEMENS    MOSUNNY   30  17  58 SW16G23   29.90F WCI  19
PONTIAC        PTSUNNY   31  19  61 SW12      29.86F WCI  22
PORT HOPE        N/A     32  22  66 SW13G25   29.79F WCI  22
PORT HURON     FAIR      30  18  59 S13G18    29.89F WCI  20
TRI CITIES     FAIR      32  24  72 SW24G31   29.82S WCI  19
MIDLAND        FAIR      35  26  71 SW14      29.79F WCI  25
TROY           FAIR      32  19  58 S13G20    29.91F WCI  22
SAGINAW HB     FAIR      32  23  69 SW18      29.83F WCI  20
$$
MIZ043>046-050>051-056>058-064>065-071>073-077>080-191800-
SOUTHWEST LOWER MICHIGAN

CITY           SKY/WX    TMP DP  RH WIND       PRES   REMARKS
BATTLE CREEK   FAIR      31  19  61 SW17G23   29.89F WCI  19
BENTON HARBOR  FAIR      35  19  52 S15       29.91F WCI  25
BIG RAPIDS     FAIR      34  25  68 SW14G22   29.77F WCI  25
COLDWATER      FAIR      31  19  59 SW14G23   29.93F WCI  21
FREMONT        FAIR      35  23  61 SW14G22   29.81F WCI  26
HOLLAND        FAIR      34  24  67 SW18G25   29.86F WCI  23
GRAND RAPIDS   CLOUDY    33  22  63 SW14      29.85F WCI  23
IONIA          FAIR      33  23  64 SW13      29.84F WCI  24
KALAMAZOO      FAIR     N/A N/A N/A SW12G21   29.91F
LUDINGTON      FAIR      34  29  82 S17G25    29.77F WCI  23
MARSHALL       FAIR      32  18  56 SW15G21   29.90F WCI  22
MOUNT PLEASANT FAIR      36  26  66 SW13G21   29.79F WCI  27
MUSKEGON       PTSUNNY   36  28  73 SW16      29.84F WCI  26
SOUTH HAVEN    FAIR      35  19  51 SW12G23   29.89F WCI  27
$$
MIZ016>042-191800-
NORTHERN LOWER MICHIGAN

CITY           SKY/WX    TMP DP  RH WIND       PRES   REMARKS
ALPENA         FAIR      34  25  69 SW10      29.71F WCI  26
BEAVER ISLAND  FAIR      35  30  81 SW16G26   29.66F WCI  25
BELLAIRE       FAIR      34  28  78 S12G17    29.69F WCI  26
CADILLAC       FAIR      32  27  81 SW13G22   29.71F WCI  22
CHARLEVOIX     FAIR      34  28  77 SW10G21   29.72F WCI  26
FRANKFORT      FAIR      35  29  79 S17G25    29.73S WCI  25
GAYLORD        FAIR      31  25  78 SW14      29.67F WCI  21
GRAYLING       FAIR      33  24  70 SW8       29.71F WCI  26
HARBOR SPRINGS FAIR      32  26  78 SW12      29.69F WCI  23
HOUGHTON LAKE  FAIR      32  25  75 SW8       29.73F WCI  25
MANISTEE       FAIR      35  27  72 S9G23     29.74F WCI  28
OSCODA         FAIR      31  23  72 SW14G23   29.75F WCI  20
PELLSTON       FAIR      33  26  75 SW12G20   29.69F WCI  24
ROGERS CITY    FAIR      34  25  70 SW7       29.69F WCI  28
TRAVERSE CITY  CLOUDY    35  27  72 S9        29.69F WCI  28
$$
MIZ007>008-015-191800-
EASTERN UPPER MICHIGAN

CITY           SKY/WX    TMP DP  RH WIND       PRES   REMARKS
KINROSS        CLOUDY    33  28  81 SW8G18    29.63F WCI  26
MACKINAC ISLAN FAIR      33  28  81 SW8       29.66F WCI  25
NEWBERRY       FAIR      32  30  91 S21G31    29.59F WCI  20
S. S. MARIE    CLOUDY    36  29  75 S9        29.63F WCI  29
MUNISING         N/A     30  24  78 S13G24    29.54F WCI  20
$$
MIZ004>006-011>014-085-191800-
CENTRAL UPPER MICHIGAN

CITY           SKY/WX    TMP DP  RH WIND       PRES   REMARKS
MANISTIQUE     FAIR      31  27  84 S15       29.62F WCI  20
ESCANABA       FAIR      29  23  78 S9        29.62F WCI  20
MENOMINEE      FAIR      31  23  72 SW10      29.65F WCI  22
SAWYER-GWINN   SUNNY     27  21  80 SW10      29.54F WCI  17
$$
MIZ001>003-009>011-084-191800-
WESTERN UPPER MICHIGAN

CITY           SKY/WX    TMP DP  RH WIND       PRES   REMARKS
IRON MOUNTAIN  FAIR      29  23  78 S7        29.56F WCI  22
HOUGHTON       FAIR      33  24  69 SW7       29.43F WCI  27
COPPER HARBOR    N/A     35  26  69 VRB5      29.43F WCI  31
IRONWOOD       PTSUNNY   39  25  57 SW13      29.49F WCI  31
$$

ABBREVIATIONS USED IN REMARKS
   TC - TEMPERATURE IN CELSIUS
  WCI - WIND CHILL INDEX
   HX - HEAT INDEX
  VSB - VISIBILITY





USA.gov is the U.S. government's official web portal to all federal, state and local government web resources and services.